Wind_Speed
10 10 9 10 9 9 8 8 8 8 8 8 8 7 7 7 7 7 7 7 7 7 6 6 6 6 6 6 6 6 6 6 6 6 6 7 6 6 6 7 7 7 8 9
11 10 10 10 10 9 9 8 8 9 9 8 8 8 8 8 8 8 8 8 7 7 6 6 6 6 6 7 7 6 6 6 6 6 6 7 7 6 7 7 8 8 9 9
11 11 11 10 10 10 10 10 10 10 10 10 9 9 9 9 8 8 8 8 8 7 7 6 6 6 6 7 7 7 7 7 7 7 7 7 7 7 7 8 8 9 9 9
11 11 11 11 11 11 11 11 11 11 11 11 10 10 9 9 9 8 8 8 8 8 8 7 7 7 7 8 8 7 8 8 8 8 8 8 8 7 8 8 9 9 10 9
12 12 12 12 12 12 12 12 13 13 12 12 12 11 9 9 9 9 9 9 9 8 8 8 8 8 8 9 9 9 9 9 9 9 9 9 9 9 9 9 10 10 10 9
13 13 13 13 13 14 13 14 14 14 13 13 12 12 10 9 9 9 10 10 9 9 9 10 10 10 10 10 10 10 10 10 10 10 10 10 10 10 10 10 10 10 10 9
15 14 14 14 14 14 14 14 15 15 14 13 13 13 11 11 10 10 11 11 10 11 11 11 11 11 12 11 11 11 11 11 11 11 11 11 11 11 11 11 11 11 10 10
16 15 15 16 16 15 15 15 16 16 15 13 13 13 12 11 11 11 12 12 12 12 12 12 12 12 12 12 12 12 13 12 12 12 12 11 12 12 12 12 12 11 11 10
17 16 17 17 16 16 17 16 16 17 16 15 14 13 12 12 12 12 12 13 13 13 13 13 13 13 13 13 13 13 13 13 13 14 13 12 12 12 13 13 12 12 12 12
19 18 18 18 18 18 17 17 17 17 17 17 15 14 13 13 13 14 14 14 14 14 14 15 15 15 15 15 14 14 14 14 14 14 14 14 14 14 14 13 13 13 12 12
20 20 20 19 19 18 18 19 19 19 19 19 17 16 15 14 14 15 16 15 15 15 15 15 15 16 16 16 16 16 15 15 15 16 16 16 16 16 15 14 14 14 13 13
22 22 21 20 20 20 20 20 21 21 20 21 20 17 17 16 16 17 17 17 17 17 16 16 17 17 17 17 17 17 17 17 17 17 18 18 18 17 16 16 15 15 15 15
23 23 22 22 21 21 21 21 22 22 22 22 22 19 18 18 19 19 19 19 19 19 18 18 18 18 18 18 18 18 18 19 19 19 19 19 19 18 18 17 17 16 16 15
24 24 24 23 23 22 22 22 22 23 24 23 22 20 19 20 20 20 21 21 21 21 20 19 19 20 20 20 20 19 19 19 20 20 20 20 19 19 19 18 18 17 17 17
26 26 25 24 24 24 23 23 24 24 25 25 23 22 20 21 21 21 22 22 22 22 22 22 22 22 22 22 21 20 20 20 20 21 20 20 20 19 19 19 19 18 18 18
27 28 27 26 26 25 25 25 25 25 25 25 24 22 21 22 22 22 22 23 23 23 23 23 23 23 23 22 22 21 21 21 21 21 21 20 20 20 20 19 19 19 19 19
28 29 29 28 27 27 26 25 25 26 25 25 25 24 24 24 24 24 24 24 24 24 24 23 24 24 24 23 23 23 22 21 21 21 21 20 21 20 20 20 20 20 20 20
28 29 29 28 28 28 26 25 26 26 26 26 26 25 25 25 25 25 25 25 25 25 25 25 25 25 25 24 24 24 23 22 21 21 21 21 21 21 21 21 21 21 21 21
29 29 30 29 29 28 26 26 26 27 26 26 26 26 26 26 26 26 26 26 26 26 26 27 27 26 25 25 24 24 23 23 22 22 22 22 22 21 21 21 21 21 21 21
30 30 30 30 30 29 27 26 27 27 27 27 27 27 27 27 27 27 27 27 28 27 28 28 27 26 26 25 25 24 24 23 23 22 22 23 23 23 22 21 21 22 22 21
31 31 31 30 31 30 28 28 28 28 28 28 28 28 28 28 28 28 28 28 28 28 28 28 27 27 26 26 25 24 24 24 24 23 23 23 22 23 22 22 21 22 22 22
31 31 31 31 32 31 30 30 30 30 29 29 29 29 30 30 30 29 29 28 28 28 28 27 27 26 26 26 26 25 24 24 23 23 23 23 23 23 23 23 23 23 22 22
31 32 32 32 32 31 31 31 31 31 30 30 30 30 31 31 30 29 28 28 28 28 27 27 26 26 26 26 25 25 24 24 24 24 24 24 24 24 24 24 24 24 24 24
31 31 32 33 32 32 32 32 32 32 31 31 30 30 30 30 29 29 29 29 28 28 28 27 26 26 26 26 25 25 25 25 25 25 25 25 25 25 25 25 25 25 25 25
30 31 32 32 32 33 32 32 32 32 32 31 32 31 30 30 29 29 28 28 28 28 28 28 28 27 27 27 27 26 26 26 26 26 26 26 26 26 25 25 25 25 25 26
31 31 32 32 32 32 32 32 32 32 32 32 32 31 31 31 30 30 29 29 29 29 29 29 29 29 28 28 28 28 27 26 27 27 27 27 26 26 26 26 26 26 27 27
Wind_Direction
263 262 263 264 265 270 281 287 286 285 288 289 293 296 299 300 299 302 305 307 309 311 312 314 318 317 314 313 314 313 311 315 316 322 325 323 322 318 316 316 316 315 313 309
262 261 263 265 267 269 274 283 283 282 285 290 292 292 293 295 300 304 306 307 308 311 310 311 313 312 310 309 309 310 307 310 312 313 316 318 318 315 315 314 313 311 310 307
262 260 262 264 265 268 273 280 283 283 283 283 287 289 288 293 298 302 304 304 304 306 306 303 304 306 304 303 307 308 305 306 308 307 310 314 315 312 311 313 313 310 308 307
261 261 264 265 268 271 272 276 279 283 285 283 285 287 289 293 297 299 300 302 303 304 301 303 305 306 301 300 303 304 303 305 307 309 308 311 311 309 308 311 312 310 304 303
260 262 264 265 267 268 273 275 278 280 283 283 283 284 287 291 294 296 295 298 302 304 302 301 300 300 298 296 299 303 303 303 304 306 306 305 307 309 312 313 313 313 309 303
258 260 264 266 265 267 272 274 276 278 280 281 285 286 284 285 290 291 292 294 297 300 297 296 296 296 294 292 292 296 296 297 298 301 304 302 304 307 309 312 315 315 312 307
259 261 265 267 268 269 272 274 274 275 278 280 284 286 286 286 287 288 291 293 295 296 295 294 294 294 294 292 291 291 291 290 290 293 297 299 299 304 308 309 310 312 312 309
261 261 264 266 267 270 273 275 276 277 278 279 281 285 285 285 286 286 288 290 293 296 296 295 295 293 296 293 291 292 292 289 287 286 289 293 296 298 302 305 305 306 308 306
262 261 262 266 266 269 272 273 275 276 278 277 279 283 282 282 284 286 287 289 291 293 293 294 295 296 295 296 294 294 293 290 287 285 285 288 291 295 297 299 300 300 301 302
261 260 262 264 265 266 268 270 272 274 277 276 276 278 280 280 283 285 287 290 291 291 290 292 293 294 295 294 293 293 292 289 286 284 284 284 287 291 293 294 295 295 296 297
261 262 261 262 263 264 266 268 269 271 274 277 276 277 280 281 280 281 283 285 286 286 287 289 290 290 291 292 292 292 291 288 285 282 281 282 284 286 288 290 291 292 293 294
261 262 262 263 263 264 264 265 266 269 272 274 276 277 279 279 279 280 280 282 283 285 287 289 291 290 290 290 290 290 288 285 282 280 279 280 283 284 284 285 286 287 288 290
260 263 265 265 264 265 268 268 268 269 270 272 275 278 278 277 277 278 278 279 280 282 283 286 288 289 289 288 288 288 287 283 280 279 278 277 280 282 283 283 283 283 284 285
260 262 265 268 268 267 267 268 267 268 269 271 273 274 273 273 273 274 277 278 279 280 280 283 285 286 287 288 288 288 287 283 280 278 278 277 278 278 280 281 282 282 283 282
262 262 264 266 268 267 265 266 267 268 269 270 272 272 272 271 270 273 275 277 279 279 280 282 283 284 286 288 288 288 286 283 281 279 278 279 276 277 277 277 279 279 280 280
262 264 264 266 268 268 265 265 268 268 270 271 272 272 272 271 270 271 273 275 277 279 280 280 281 283 285 287 288 287 285 283 281 281 280 279 277 276 277 276 276 276 277 278
263 265 267 268 268 268 265 265 267 269 268 269 270 272 272 271 271 270 272 274 276 278 278 278 279 280 282 284 287 286 284 283 281 280 280 279 278 276 276 274 273 274 277 277
263 265 267 268 268 266 267 266 266 269 269 269 270 270 271 271 271 272 272 273 275 277 278 279 280 279 281 283 285 285 284 283 281 280 279 279 278 277 275 273 273 274 276 276
263 264 266 268 268 268 267 267 268 269 269 270 270 270 272 272 271 272 273 273 274 276 278 279 280 281 282 282 284 284 282 281 280 279 279 279 279 277 275 275 275 274 276 277
263 263 265 266 269 269 269 269 269 270 270 270 270 269 271 271 270 271 272 272 274 276 279 281 281 281 281 281 281 283 280 279 278 278 278 277 278 277 277 277 277 277 277 278
262 263 264 265 268 268 269 270 270 271 273 271 271 269 270 272 272 272 273 274 275 277 279 280 280 280 279 280 280 281 278 277 278 278 278 279 279 278 278 278 278 279 278 278
262 262 263 265 267 268 269 270 269 271 272 271 270 270 270 272 272 273 274 274 275 277 279 279 278 278 279 279 279 281 280 277 277 278 279 280 280 279 278 277 277 278 278 279
261 262 263 264 267 269 269 270 270 269 269 269 269 270 271 271 272 272 273 274 274 276 277 279 278 277 278 279 279 280 281 278 277 279 278 279 279 278 277 277 277 277 278 279
262 261 263 264 265 266 267 269 269 270 270 269 270 271 272 271 271 271 272 273 273 275 276 276 277 276 277 277 278 279 279 279 278 278 278 278 278 277 277 278 278 278 278 278
264 262 262 263 265 265 267 269 270 269 270 270 269 270 272 272 271 271 272 272 272 273 275 276 276 276 274 276 276 276 277 277 277 277 277 278 278 277 277 277 278 279 279 279
265 265 263 263 264 265 267 268 269 269 270 270 269 270 271 271 272 272 273 273 273 273 274 274 275 275 273 274 276 276 276 275 275 276 277 277 277 277 277 277 277 278 278 279
Height
5864 5865 5865 5865 5866 5866 5866 5866 5866 5866 5865 5865 5864 5864 5863 5862 5861 5860 5860 5858 5857 5856 5856 5855 5854 5853 5852 5851 5850 5849 5848 5848 5847 5846 5845 5844 5843 5842 5841 5840 5838 5837 5836 5835
5862 5863 5863 5863 5863 5864 5864 5864 5865 5864 5864 5864 5863 5862 5861 5860 5860 5859 5858 5857 5856 5855 5854 5854 5853 5852 5851 5850 5849 5848 5847 5846 5845 5844 5843 5842 5841 5840 5839 5838 5836 5835 5834 5833
5860 5861 5860 5861 5861 5862 5862 5863 5863 5863 5862 5862 5862 5861 5860 5859 5858 5858 5857 5856 5855 5854 5853 5852 5851 5850 5849 5849 5848 5847 5846 5845 5844 5843 5842 5841 5840 5838 5837 5836 5835 5833 5832 5831
5857 5858 5858 5859 5859 5860 5860 5860 5860 5860 5860 5860 5860 5859 5858 5857 5857 5856 5855 5854 5853 5853 5852 5851 5850 5849 5848 5847 5846 5845 5844 5843 5842 5841 5840 5839 5838 5837 5835 5834 5833 5831 5830 5829
5855 5856 5856 5857 5857 5857 5858 5858 5858 5857 5857 5857 5857 5857 5857 5856 5855 5854 5853 5852 5851 5851 5850 5849 5848 5847 5846 5845 5844 5843 5842 5841 5840 5839 5838 5837 5836 5834 5833 5832 5830 5829 5828 5826
5853 5853 5854 5854 5854 5855 5855 5855 5855 5854 5854 5855 5855 5854 5855 5854 5853 5852 5851 5850 5849 5849 5848 5847 5846 5845 5844 5843 5842 5841 5840 5839 5838 5837 5836 5834 5833 5832 5831 5830 5828 5827 5825 5824
5850 5851 5851 5851 5851 5852 5852 5853 5852 5852 5851 5852 5852 5851 5852 5851 5851 5850 5849 5848 5847 5846 5845 5844 5843 5842 5841 5840 5839 5838 5837 5836 5835 5834 5833 5832 5831 5830 5829 5827 5826 5824 5823 5822
5846 5848 5848 5848 5848 5849 5849 5849 5850 5849 5849 5849 5848 5848 5850 5848 5848 5847 5846 5845 5844 5843 5842 5841 5840 5839 5838 5837 5836 5835 5834 5833 5832 5831 5830 5829 5828 5827 5826 5825 5823 5822 5821 5819
5843 5844 5844 5844 5845 5845 5845 5845 5846 5846 5845 5845 5845 5846 5846 5845 5844 5844 5843 5842 5841 5840 5839 5838 5837 5836 5835 5834 5833 5832 5831 5830 5829 5828 5827 5826 5825 5824 5823 5822 5820 5819 5818 5817
5839 5840 5840 5840 5841 5841 5842 5842 5842 5842 5841 5841 5842 5842 5843 5842 5841 5841 5840 5839 5838 5837 5836 5835 5833 5832 5831 5830 5829 5828 5827 5826 5825 5825 5824 5823 5822 5821 5820 5819 5817 5816 5815 5814
5834 5835 5836 5836 5837 5837 5838 5838 5837 5837 5837 5838 5838 5841 5839 5838 5838 5837 5836 5835 5834 5833 5832 5831 5830 5828 5827 5826 5825 5824 5823 5822 5821 5820 5819 5818 5818 5817 5816 5815 5814 5813 5812 5810
5829 5830 5831 5832 5832 5832 5832 5832 5833 5833 5833 5832 5833 5838 5834 5834 5833 5833 5832 5831 5830 5829 5828 5827 5826 5824 5823 5822 5820 5819 5818 5817 5816 5816 5815 5814 5813 5812 5812 5811 5810 5808 5807 5806
5824 5825 5826 5826 5829 5828 5827 5827 5827 5827 5827 5827 5828 5832 5829 5829 5828 5828 5827 5826 5825 5824 5823 5822 5821 5820 5818 5817 5815 5814 5813 5812 5811 5810 5809 5808 5808 5807 5806 5806 5805 5804 5803 5802
5818 5819 5820 5821 5821 5821 5821 5821 5821 5822 5821 5822 5823 5824 5824 5823 5822 5822 5822 5821 5820 5819 5818 5817 5816 5815 5813 5812 5810 5809 5807 5806 5805 5804 5803 5803 5802 5802 5801 5801 5800 5799 5798 5797
5812 5813 5813 5814 5814 5815 5815 5815 5815 5815 5816 5816 5817 5817 5818 5817 5817 5816 5816 5815 5814 5814 5813 5812 5811 5809 5808 5806 5805 5803 5801 5800 5799 5798 5798 5797 5797 5796 5795 5795 5795 5794 5793 5793
5805 5805 5806 5807 5807 5807 5808 5809 5809 5809 5809 5810 5810 5811 5811 5810 5810 5810 5810 5809 5809 5808 5807 5806 5804 5803 5802 5800 5799 5797 5795 5794 5793 5792 5791 5791 5791 5790 5790 5789 5789 5788 5788 5787
5798 5798 5799 5800 5800 5800 5801 5803 5802 5802 5803 5803 5803 5805 5804 5804 5804 5803 5803 5802 5802 5801 5800 5799 5798 5797 5795 5794 5792 5791 5789 5788 5787 5786 5785 5785 5784 5784 5784 5783 5783 5782 5782 5781
5791 5791 5791 5792 5793 5793 5797 5796 5796 5796 5796 5796 5796 5796 5796 5796 5796 5796 5796 5795 5795 5794 5793 5792 5791 5790 5788 5787 5786 5784 5783 5782 5781 5780 5779 5778 5778 5778 5777 5777 5776 5776 5776 5775
5784 5784 5784 5785 5785 5786 5788 5789 5788 5788 5789 5789 5789 5789 5789 5789 5789 5789 5788 5788 5787 5786 5786 5784 5783 5782 5781 5780 5779 5777 5776 5775 5774 5773 5773 5772 5771 5771 5771 5770 5770 5769 5769 5768
5776 5776 5777 5777 5777 5778 5782 5781 5780 5781 5781 5782 5781 5781 5781 5780 5781 5782 5781 5780 5779 5779 5778 5777 5776 5774 5774 5773 5771 5770 5769 5768 5768 5767 5766 5765 5765 5764 5764 5763 5763 5762 5762 5761
5768 5768 5769 5769 5769 5770 5773 5772 5773 5774 5775 5774 5773 5773 5773 5773 5773 5773 5772 5772 5771 5771 5770 5769 5768 5767 5766 5765 5764 5763 5762 5761 5761 5760 5759 5758 5758 5757 5757 5757 5756 5756 5755 5754
5759 5760 5761 5761 5761 5764 5764 5763 5764 5765 5764 5764 5764 5764 5764 5764 5764 5764 5764 5763 5763 5762 5761 5760 5759 5759 5758 5757 5756 5755 5755 5754 5753 5753 5752 5752 5751 5751 5750 5749 5749 5748 5748 5747
5750 5752 5752 5753 5755 5755 5754 5754 5754 5754 5755 5755 5755 5755 5756 5756 5756 5755 5755 5755 5755 5754 5753 5752 5751 5751 5750 5749 5748 5748 5747 5747 5746 5746 5745 5745 5744 5743 5743 5742 5742 5741 5740 5740
5742 5742 5743 5744 5745 5745 5745 5745 5745 5745 5746 5746 5747 5747 5747 5747 5747 5747 5746 5746 5746 5746 5745 5744 5744 5743 5743 5742 5741 5740 5740 5739 5739 5739 5738 5737 5737 5736 5735 5735 5734 5733 5733 5732
5734 5734 5734 5734 5735 5736 5736 5736 5736 5737 5737 5738 5738 5738 5738 5738 5738 5738 5738 5737 5737 5737 5736 5736 5736 5735 5735 5734 5734 5733 5732 5732 5731 5730 5730 5729 5729 5728 5727 5727 5726 5725 5725 5724
5725 5725 5725 5726 5726 5727 5728 5728 5728 5728 5729 5729 5729 5729 5730 5729 5729 5729 5729 5729 5728 5728 5728 5727 5727 5727 5726 5726 5726 5725 5724 5723 5723 5722 5722 5721 5721 5720 5720 5719 5718 5717 5717 5716